Starlink 5400

operational
NORAD ID: 54861 Int'l Des: 2022-177 Owner: SPXS Country: US Constellation: starlink
LEOCIRCULAR

Über Starlink 5400

Beschreibung wird geladen...

Live-Position

3D-Globus wird geladen...

Nächste Überflüge

Höhenverlauf

Altitude vs Time

uPlot chart will show altitude changes over time

Zweizeiliger Elementsatz

1 54861U 22177AT 25304.71730047 .00000167 00000-0 27422-4 0 9991
2 54861 43.0032 101.1937 0001217 267.7795 92.2908 15.02539527157703
Epoch: 31. Okt. 2025 • Age: 11 hours

Aktueller Status

Höhe 571.2 km
Geschwindigkeit 7.58 km/s
Subsatellitenpunkt -42.06°S, 106.74°W
Startdatum 28. Dez. 2022
Alter 2.8 years
Typ internet

Technische Details

Klassifizierung Payload
Masse 305.00 kg
Trockenmasse 290.00 kg
Gesamtmasse 305.00 kg
Länge 0.20 m
Durchmesser 2.80 m
Spannweite 9.00 m
Form Box + pan
Hersteller SPXS
Bus-Typ Starlink
Phasenstatus In Orbit
Besitzer/Staat SPXS/US

Große Konstellationen

Loading constellations...